Weather History for KCRP - May, 2014

Change the Weather History Date:

Sunday, May 11, 2014

  Actual Average Record
Temperature  
Mean Temperature 78 °F 78 °F  
Max Temperature 85 °F 86 °F 93 °F (1967)
Min Temperature 71 °F 69 °F 55 °F (1993)
Degree Days  
Heating Degree Days 0 0  
Month to date heating degree days 0 0  
Since 1 July heating degree days 1145 898  
Cooling Degree Days 13 12  
Month to date cooling degree days 104 127  
Year to date cooling degree days 550 555  
Growing Degree Days 28 (Base 50)    
Moisture  
Dew Point 72 °F    
Average Humidity 82    
Maximum Humidity 94    
Minimum Humidity 70    
Precipitation  
Precipitation T in 0.09 in 2.41 in (1979)
Month to date precipitation 2.42 0.98  
Year to date precipitation 5.48 8.18  
Snow  
Snow 0.00 in - - ()
Month to date snowfall 0.0  
Since 1 July snowfall T  
Snow Depth 0.00 in    
Sea Level Pressure  
Sea Level Pressure 29.78 in    
Wind  
Wind Speed 17 mph (SE)    
Max Wind Speed 25 mph    
Max Gust Speed 30 mph    
Visibility 9 miles    
Events      
T = Trace of Precipitation, MM = Missing Value Source: NWS Daily Summary

Daily Weather History Graph

Daily Weather History Graph

Search for Another Location

Airport or City:

Trip Planner

Search our weather history database for the weather conditions in past years. The results will help you decide how hot, cold, wet, or windy it might be!

Date:

Astronomy

May. 11, 2014 Rise Set
Actual Time 6:43 AM CDT 8:10 PM CDT
Civil Twilight 6:17 AM CDT 8:35 PM CDT
Nautical Twilight 5:47 AM CDT 9:05 PM CDT
Astronomical Twilight 5:16 AM CDT 9:36 PM CDT
Moon 5:22 PM CDT (5/11) 4:31 AM CDT (5/11)
Length of Visible Light 14h 17m
Length of Day
13h 26m
Waxing Gibbous, 89% of the Moon is Illuminated
May 11
Waxing Gibbous
May 14
Full
May 21
Last Quarter
May 28
New
Jun 5
First Quarter

Hourly Weather History & Observations

Time (CDT) Temp. Heat Index Dew Point Humidity Pressure Visibility Wind Dir Wind Speed Gust Speed Precip Events Conditions
12:51 AM 73.4 °F - 71.6 °F 94% 29.83 in 10.0 mi SSE 9.2 mph - N/A   Overcast
1:51 AM 73.9 °F - 71.1 °F 91% 29.81 in 10.0 mi SE 10.4 mph - N/A   Overcast
2:51 AM 73.0 °F - 71.1 °F 93% 29.80 in 8.0 mi SSE 10.4 mph - N/A   Overcast
3:48 AM 73.4 °F - 71.6 °F 94% 29.78 in 10.0 mi SSE 10.4 mph - N/A   Overcast
3:51 AM 73.4 °F - 71.6 °F 94% 29.78 in 10.0 mi SE 11.5 mph - N/A   Mostly Cloudy
4:05 AM 73.0 °F - 71.1 °F 93% 29.77 in 10.0 mi SE 9.2 mph - N/A   Mostly Cloudy
4:15 AM 73.0 °F - 70.0 °F 90% 29.77 in 10.0 mi SE 12.7 mph - N/A   Scattered Clouds
4:29 AM 73.0 °F - 70.0 °F 90% 29.77 in 10.0 mi SE 11.5 mph - N/A   Mostly Cloudy
4:48 AM 73.4 °F - 69.8 °F 88% 29.76 in 10.0 mi SE 12.7 mph - N/A   Overcast
4:51 AM 73.0 °F - 70.0 °F 90% 29.76 in 10.0 mi SE 15.0 mph - N/A   Overcast
5:20 AM 72.0 °F - 69.1 °F 91% 29.77 in 10.0 mi SE 9.2 mph - N/A   Scattered Clouds
5:29 AM 72.0 °F - 69.1 °F 91% 29.77 in 9.0 mi SE 9.2 mph - N/A   Mostly Cloudy
5:51 AM 71.1 °F - 69.1 °F 93% 29.77 in 7.0 mi SE 8.1 mph - N/A   Overcast
6:51 AM 73.0 °F - 70.0 °F 90% 29.78 in 6.0 mi SE 20.7 mph 26.5 mph N/A   Overcast
7:11 AM 73.0 °F - 70.0 °F 90% 29.80 in 10.0 mi SSE 11.5 mph - N/A   Overcast
7:51 AM 73.9 °F - 71.1 °F 91% 29.81 in 10.0 mi SSE 15.0 mph - N/A   Overcast
8:03 AM 75.0 °F - 71.1 °F 87% 29.81 in 10.0 mi SSE 13.8 mph - N/A   Overcast
8:45 AM 75.2 °F - 71.6 °F 89% 29.82 in 10.0 mi SSE 13.8 mph - N/A   Overcast
8:51 AM 75.9 °F - 72.0 °F 87% 29.82 in 10.0 mi SSE 16.1 mph - N/A   Overcast
9:51 AM 77.0 °F - 72.0 °F 84% 29.83 in 10.0 mi SSE 20.7 mph - N/A   Overcast
10:25 AM 79.0 °F - 73.0 °F 82% 29.82 in 10.0 mi SE 17.3 mph - N/A   Scattered Clouds
10:36 AM 80.1 °F 84.2 °F 73.0 °F 79% 29.82 in 10.0 mi SSE 16.1 mph - N/A   Mostly Cloudy
10:51 AM 81.0 °F 85.8 °F 73.0 °F 77% 29.82 in 10.0 mi SSE 21.9 mph - N/A   Mostly Cloudy
11:51 AM 82.0 °F 87.9 °F 73.9 °F 76% 29.82 in 10.0 mi SSE 16.1 mph 25.3 mph N/A   Overcast
12:13 PM 82.9 °F 89.4 °F 73.9 °F 74% 29.82 in 10.0 mi SSE 19.6 mph - N/A   Mostly Cloudy
12:42 PM 82.0 °F 87.4 °F 73.0 °F 74% 29.81 in 10.0 mi SE 18.4 mph - N/A   Overcast
12:51 PM 82.0 °F 87.4 °F 73.0 °F 74% 29.81 in 10.0 mi SE 17.3 mph - N/A   Overcast
1:51 PM 84.0 °F 91.2 °F 73.9 °F 72% 29.78 in 10.0 mi SE 17.3 mph - N/A   Mostly Cloudy
2:51 PM 84.0 °F 91.2 °F 73.9 °F 72% 29.76 in 10.0 mi SE 19.6 mph - N/A   Mostly Cloudy
3:51 PM 82.9 °F 89.4 °F 73.9 °F 74% 29.74 in 10.0 mi SSE 20.7 mph - N/A   Mostly Cloudy
4:51 PM 82.9 °F 89.4 °F 73.9 °F 74% 29.73 in 10.0 mi SE 20.7 mph 29.9 mph N/A   Mostly Cloudy
5:15 PM 82.0 °F 87.9 °F 73.9 °F 76% 29.71 in 10.0 mi SE 23.0 mph - N/A   Mostly Cloudy
5:51 PM 81.0 °F 86.2 °F 73.9 °F 79% 29.71 in 10.0 mi SE 21.9 mph - N/A   Scattered Clouds
6:13 PM 81.0 °F 86.2 °F 73.9 °F 79% 29.71 in 10.0 mi SE 17.3 mph - N/A   Mostly Cloudy
6:32 PM 80.1 °F 84.5 °F 73.9 °F 81% 29.72 in 10.0 mi SE 18.4 mph - N/A   Mostly Cloudy
6:51 PM 79.0 °F - 73.9 °F 84% 29.71 in 9.0 mi SE 18.4 mph - N/A   Mostly Cloudy
7:51 PM 78.1 °F - 73.0 °F 84% 29.70 in 9.0 mi SE 19.6 mph - N/A   Mostly Cloudy
8:51 PM 77.0 °F - 73.0 °F 88% 29.73 in 9.0 mi SE 15.0 mph - N/A   Mostly Cloudy
9:23 PM 77.0 °F - 73.0 °F 88% 29.75 in 9.0 mi SE 16.1 mph - N/A   Overcast
9:51 PM 77.0 °F - 73.0 °F 88% 29.76 in 8.0 mi SSE 20.7 mph - N/A   Overcast
10:40 PM 75.9 °F - 73.9 °F 94% 29.78 in 5.0 mi SE 18.4 mph 27.6 mph 0.00 in   Light Drizzle
10:51 PM 75.9 °F - 73.9 °F 94% 29.78 in 6.0 mi SE 18.4 mph 27.6 mph 0.00 in   Overcast
11:51 PM 77.0 °F - 73.9 °F 90% 29.78 in 6.0 mi SSE 17.3 mph - N/A   Overcast